Location: Chippewa Lake
(41.0698°N, 81.9010°W)
Time: 02:04:24
(UTC+00:00)

Meteor 1-27 Rocket - Pass Details

Date: 09 May 2021
Orbit: 829 x 910 km, 81.3° (Epoch: 24 June)

Event Time Altitude Azimuth Distance (km) Brightness Sun altitude
Exits shadow 03:25:52 54° 97° (E) 1,075 3.9 -25.4°
Maximum altitude 03:25:57 54° 94° (E) 1,075 3.9 -25.4°
Drops below altitude 10° 03:31:40 10° 19° (NNE) 2,586 6.7 -26.0°
Sets 03:34:12 0° 15° (NNE) 3,538 7.6 -26.2°
